Bremerton, WA

4:52 PM PDT on July 27, 2017 (GMT -0700)
Bremerton National

Weather History for KPWT - March, 2013

Change the Weather History Date:

Sunday, March 10, 2013

  Actual Average Record
Temperature  
Mean Temperature 38 °F -  
Max Temperature 46 °F 47 °F 66 °F (2005)
Min Temperature 30 °F 34 °F 28 °F (2009)
Degree Days  
Heating Degree Days 27    
Moisture  
Dew Point 34 °F    
Average Humidity 80    
Maximum Humidity 93    
Minimum Humidity 62    
Precipitation  
Precipitation 0.00 in - - ()
Sea Level Pressure  
Sea Level Pressure 30.48 in    
Wind  
Wind Speed 1 mph (SSW)    
Max Wind Speed 7 mph    
Max Gust Speed -    
Visibility 10 miles    
Events      
Averages and records for this station are not official NWS values.
T = Trace of Precipitation, MM = Missing Value Source: NWS Daily Summary

Daily Weather History Graph

Daily Weather History Graph

Search for Another Location

Airport or City:

Trip Planner

Search our weather history database for the weather conditions in past years. The results will help you decide how hot, cold, wet, or windy it might be!

Date:

Astronomy

Mar. 10, 2013 Rise Set
Actual Time 7:33 AM PDT 7:09 PM PDT
Civil Twilight 7:02 AM PDT 7:40 PM PDT
Nautical Twilight 6:27 AM PDT 8:16 PM PDT
Astronomical Twilight 5:50 AM PDT 8:52 PM PDT
Moon 6:38 AM PDT (3/10) 6:23 PM PDT (3/10)
Length of Visible Light 12h 37m
Length of Day
11h 36m
Waning Crescent, 1% of the Moon is Illuminated
Mar 10
Waning Crescent
Mar 11
New
Mar 19
First Quarter
Mar 27
Full
Apr 2
Last Quarter

Hourly Weather History & Observations

Time (PDT) Temp. Windchill Dew Point Humidity Pressure Visibility Wind Dir Wind Speed Gust Speed Precip Events Conditions
12:15 AM 30.2 °F - 26.6 °F 86% 30.51 in 3.0 mi Calm Calm - N/A   Clear
12:35 AM 32.0 °F - 28.4 °F 87% 30.51 in 10.0 mi Calm Calm - N/A   Clear
12:55 AM 30.2 °F - 26.6 °F 86% 30.51 in 10.0 mi Calm Calm - N/A   Clear
1:15 AM 30.2 °F - 26.6 °F 86% 30.51 in 10.0 mi Calm Calm - N/A   Clear
1:35 AM 30.2 °F - 26.6 °F 86% 30.50 in 5.0 mi Calm Calm - N/A   Clear
1:55 AM 30.2 °F - 28.4 °F 93% 30.51 in 10.0 mi Calm Calm - N/A   Scattered Clouds
3:15 AM 30.2 °F - 26.6 °F 86% 30.52 in 10.0 mi Calm Calm - N/A   Partly Cloudy
3:35 AM 30.2 °F - 26.6 °F 86% 30.51 in 10.0 mi Calm Calm - N/A   Mostly Cloudy
3:55 AM 32.0 °F - 28.4 °F 87% 30.50 in 10.0 mi Calm Calm - N/A   Overcast
4:15 AM 33.8 °F - 28.4 °F 81% 30.50 in 10.0 mi Calm Calm - N/A   Overcast
4:35 AM 33.8 °F - 30.2 °F 87% 30.50 in 10.0 mi Calm Calm - N/A   Overcast
5:35 AM 35.6 °F - 30.2 °F 81% 30.51 in 10.0 mi Calm Calm - N/A   Scattered Clouds
5:55 AM 35.6 °F - 32.0 °F 87% 30.51 in 10.0 mi Calm Calm - N/A   Partly Cloudy
6:15 AM 35.6 °F - 32.0 °F 87% 30.52 in 10.0 mi Calm Calm - N/A   Mostly Cloudy
6:35 AM 35.6 °F - 32.0 °F 87% 30.50 in 10.0 mi Calm Calm - N/A   Overcast
6:55 AM 35.6 °F - 32.0 °F 87% 30.51 in 10.0 mi Calm Calm - N/A   Mostly Cloudy
7:15 AM 35.6 °F - 32.0 °F 87% 30.50 in 10.0 mi Calm Calm - N/A   Overcast
7:35 AM 35.6 °F - 32.0 °F 87% 30.50 in 10.0 mi Calm Calm - N/A   Overcast
7:55 AM 35.6 °F - 32.0 °F 87% 30.49 in 10.0 mi Calm Calm - N/A   Overcast
8:15 AM 37.4 °F - 33.8 °F 87% 30.50 in 10.0 mi Calm Calm - N/A   Overcast
8:35 AM 37.4 °F - 33.8 °F 87% 30.48 in 10.0 mi Calm Calm - N/A   Overcast
8:55 AM 37.4 °F - 33.8 °F 87% 30.50 in 10.0 mi Calm Calm - N/A   Overcast
9:15 AM 39.2 °F - 33.8 °F 81% 30.49 in 10.0 mi Calm Calm - N/A   Mostly Cloudy
9:35 AM 39.2 °F 37.0 °F 33.8 °F 81% 30.49 in 10.0 mi SW 3.5 mph - N/A   Scattered Clouds
9:55 AM 39.2 °F 37.0 °F 33.8 °F 81% 30.50 in 10.0 mi West 3.5 mph - N/A   Overcast
10:15 AM 39.2 °F 37.0 °F 35.6 °F 87% 30.48 in 10.0 mi SW 3.5 mph - N/A   Overcast
10:35 AM 39.2 °F 35.9 °F 35.6 °F 87% 30.50 in 10.0 mi SW 4.6 mph - N/A   Overcast
10:55 AM 39.2 °F - 35.6 °F 87% 30.49 in 10.0 mi Calm Calm - N/A   Overcast
11:15 AM 41.0 °F 39.0 °F 35.6 °F 81% 30.49 in 10.0 mi South 3.5 mph - N/A   Overcast
11:35 AM 41.0 °F - 35.6 °F 81% 30.49 in 10.0 mi Calm Calm - N/A   Mostly Cloudy
11:55 AM 42.8 °F - 35.6 °F 76% 30.48 in 10.0 mi Calm Calm - N/A   Scattered Clouds
12:15 PM 42.8 °F 41.1 °F 35.6 °F 76% 30.47 in 10.0 mi SW 3.5 mph - N/A   Mostly Cloudy
12:35 PM 44.6 °F 41.4 °F 37.4 °F 76% 30.47 in 10.0 mi SSW 5.8 mph - N/A   Mostly Cloudy
12:55 PM 46.4 °F 45.2 °F 35.6 °F 66% 30.48 in 10.0 mi South 3.5 mph - N/A   Mostly Cloudy
1:15 PM 46.4 °F 42.9 °F 35.6 °F 66% 30.48 in 10.0 mi SSW 6.9 mph - N/A   Mostly Cloudy
1:35 PM 46.4 °F 44.3 °F 35.6 °F 66% 30.46 in 10.0 mi SW 4.6 mph - N/A   Mostly Cloudy
1:55 PM 46.4 °F 42.9 °F 35.6 °F 66% 30.47 in 10.0 mi SW 6.9 mph - N/A   Scattered Clouds
2:15 PM 46.4 °F 42.9 °F 33.8 °F 62% 30.47 in 10.0 mi SSW 6.9 mph - N/A   Scattered Clouds
2:35 PM 46.4 °F 43.5 °F 35.6 °F 66% 30.46 in 10.0 mi SW 5.8 mph - N/A   Mostly Cloudy
2:55 PM 46.4 °F 44.3 °F 35.6 °F 66% 30.45 in 10.0 mi SW 4.6 mph - N/A   Overcast
3:15 PM 46.4 °F 43.5 °F 35.6 °F 66% 30.46 in 10.0 mi South 5.8 mph - N/A   Overcast
3:35 PM 46.4 °F 44.3 °F 35.6 °F 66% 30.46 in 10.0 mi South 4.6 mph - N/A   Overcast
3:55 PM 46.4 °F 43.5 °F 35.6 °F 66% 30.46 in 10.0 mi WSW 5.8 mph - N/A   Overcast
4:15 PM 46.4 °F - 35.6 °F 66% 30.46 in 10.0 mi Calm Calm - N/A   Overcast
4:35 PM 46.4 °F 42.9 °F 37.4 °F 71% 30.46 in 10.0 mi SSW 6.9 mph - N/A   Overcast
4:55 PM 44.6 °F 42.2 °F 37.4 °F 76% 30.46 in 10.0 mi South 4.6 mph - N/A   Overcast
5:15 PM 44.6 °F - 37.4 °F 76% 30.46 in 10.0 mi Calm Calm - N/A   Overcast
5:35 PM 44.6 °F - 37.4 °F 76% 30.46 in 10.0 mi Calm Calm - N/A   Overcast
5:55 PM 44.6 °F - 37.4 °F 76% 30.47 in 10.0 mi Calm Calm - N/A   Overcast
6:15 PM 44.6 °F - 37.4 °F 76% 30.46 in 10.0 mi Calm Calm - N/A   Overcast
6:35 PM 44.6 °F 43.1 °F 37.4 °F 76% 30.46 in 10.0 mi NE 3.5 mph - N/A   Overcast
7:15 PM 42.8 °F 41.1 °F 37.4 °F 81% 30.45 in 10.0 mi NE 3.5 mph - N/A   Overcast
7:35 PM 42.8 °F - 37.4 °F 81% 30.46 in 10.0 mi Calm Calm - N/A   Overcast
7:55 PM 42.8 °F - 37.4 °F 81% 30.46 in 10.0 mi Calm Calm - N/A   Overcast
8:15 PM 42.8 °F - 37.4 °F 81% 30.46 in 10.0 mi Calm Calm - N/A   Overcast
8:35 PM 42.8 °F - 37.4 °F 81% 30.46 in 10.0 mi Calm Calm - N/A   Overcast
8:55 PM 42.8 °F - 37.4 °F 81% 30.46 in 10.0 mi Calm Calm - N/A   Overcast
9:15 PM 42.8 °F - 37.4 °F 81% 30.46 in 10.0 mi Calm Calm - N/A   Overcast
9:35 PM 42.8 °F - 37.4 °F 81% 30.45 in 10.0 mi Calm Calm - N/A   Overcast
10:35 PM 42.8 °F - 37.4 °F 81% 30.45 in 10.0 mi Calm Calm - N/A   Overcast
10:55 PM 42.8 °F - 37.4 °F 81% 30.46 in 10.0 mi Calm Calm - N/A   Overcast
11:15 PM 42.8 °F - 37.4 °F 81% 30.45 in 10.0 mi Calm Calm - N/A   Overcast
11:35 PM 42.8 °F - 37.4 °F 81% 30.46 in 10.0 mi Calm Calm - N/A   Overcast
11:55 PM 42.8 °F - 37.4 °F 81% 30.46 in 10.0 mi Calm Calm - N/A   Overcast
12:15 AM 42.8 °F - 37.4 °F 81% 30.46 in 10.0 mi Calm Calm - N/A   Overcast
12:35 AM 42.8 °F - 37.4 °F 81% 30.45 in 10.0 mi Calm Calm - N/A   Overcast
12:55 AM 42.8 °F - 37.4 °F 81% 30.46 in 10.0 mi Calm Calm - N/A   Overcast